Location: Boiro
(42.6475°N, 8.8834°W)
Time: 05:21:10
(UTC+01:00)

Transit 4A - Pass Details

Date: 09 December 2021
Orbit: 864 x 980 km, 66.8° (Epoch: 17 January)

Event Time Altitude Azimuth Distance (km) Brightness Sun altitude
Rises 20:03:17 0° 222° (SW) 3,452 11.7 -21.5°
Reaches altitude 10° 20:05:46 10° 226° (SW) 2,529 11.0 -22.0°
Maximum altitude 20:11:32 57° 305° (NW) 1,048 8.3 -23.0°
Enters shadow 20:15:10 24° 16° (NNE) 1,808 9.2 -23.7°
